Location: Byhalia Creek
(34.8270°N, 89.8040°W)
Time: 20:14:41
(UTC+00:00)

Iridium 4 Rocket - Pass Details

Date: 22 April 2026
Orbit: 581 x 884 km, 86.9° (Epoch: 21 May)

Event Time Altitude Azimuth Distance (km) Brightness Sun altitude
Exits shadow 08:41:04 44° 358° (N) 953 4.2 -29.1°
Drops below altitude 10° 08:44:26 10° 1° (N) 2,209 6.4 -28.6°
Sets 08:46:51 0° 1° (N) 3,185 7.3 -28.2°
